Location: Forli
(44.2227°N, 12.0407°E)
Time: 16:19:43
(UTC+01:00)

Tiangong - Pass Details

Date: 17 February 2026
Orbit: 382 x 391 km, 41.5° (Epoch: 5 March)

Event Time Altitude Azimuth Distance (km) Brightness Sun altitude
Rises 19:12:37 0° 269° (W) 2,256 3.6 -16.5°
Reaches altitude 10° 19:14:45 10° 263° (W) 1,400 2.0 -16.9°
Maximum altitude 19:17:45 42° 191° (S) 556 -1.3 -17.5°
Enters shadow 19:18:23 37° 157° (SSE) 615 -1.4 -17.6°
